Temperature
17 16 16 16 16 15 15 15 14 14 14 14 13 13 13 13 13 13 12 12 12 12 12 12 12 12 12 13 13 13 13 13 13 14 14 14 14 14 14 14 15 15 15
17 16 16 16 15 15 15 15 14 14 14 13 13 13 13 13 13 13 12 12 12 12 12 12 12 12 12 13 13 13 13 13 13 13 13 13 13 14 14 14 14 14 15
16 16 16 16 15 15 15 15 14 14 14 14 13 13 13 13 13 13 12 12 12 12 12 12 12 12 12 12 13 13 13 13 13 13 13 13 13 14 14 14 14 14 14
16 16 16 16 15 15 15 15 14 14 14 14 13 13 13 13 13 13 12 12 12 12 12 12 12 12 12 12 13 12 13 13 13 13 13 13 13 13 13 13 14 14 14
16 16 16 16 15 15 15 15 14 14 14 14 13 13 13 13 13 13 13 12 12 12 12 12 12 12 12 12 12 12 13 13 13 13 13 13 13 13 13 13 13 13 14
16 16 16 16 16 15 15 15 14 14 14 14 13 13 13 13 13 13 13 12 12 12 12 12 12 12 12 12 12 12 12 12 13 13 13 13 13 13 13 13 13 13 13
16 16 16 16 16 15 15 15 15 14 14 14 14 13 13 13 14 13 13 12 12 12 12 12 12 12 12 12 12 12 12 13 13 12 12 13 13 13 13 13 12 12 13
16 15 15 15 15 15 15 15 15 14 14 14 14 13 13 13 14 13 13 13 12 12 12 12 12 12 12 12 12 12 12 12 12 12 12 12 12 12 12 12 12 12 12
15 15 15 15 15 15 15 15 14 14 14 14 14 14 13 13 14 13 13 12 12 12 12 12 12 12 12 12 12 12 12 12 12 12 12 12 12 12 12 12 12 12 12
15 15 15 15 15 15 15 15 14 14 14 14 13 13 13 13 13 13 13 12 12 12 12 12 12 12 12 12 12 12 12 12 11 12 12 12 12 12 12 12 12 12 12
15 15 15 15 14 14 14 14 14 14 14 14 13 13 13 13 13 13 13 13 12 12 12 12 12 12 12 12 12 12 12 11 11 11 11 11 11 12 12 12 12 12 11
15 14 14 14 14 14 14 14 14 14 14 13 13 13 13 13 13 13 13 13 12 12 12 12 12 12 12 12 12 12 11 11 11 11 11 11 11 11 11 11 11 11 11
14 14 14 14 14 13 13 14 13 13 13 13 13 13 13 12 13 13 13 13 13 12 12 12 12 12 12 12 12 11 11 11 11 11 11 11 11 11 11 11 11 11 11
13 13 13 13 13 13 13 13 13 13 13 13 12 12 12 12 12 12 12 12 12 12 12 12 12 12 11 11 11 11 11 11 10 10 10 10 10 10 10 10 10 10 10
13 13 13 13 13 13 12 12 13 13 13 13 12 12 12 12 12 12 12 12 11 11 11 11 11 11 11 11 10 10 10 10 10 10 10 10 10 10 10 10 10 10 9
12 12 12 12 12 12 12 12 12 12 13 13 12 12 12 12 12 12 12 12 12 11 11 11 11 11 11 10 10 10 10 10 10 10 10 9 9 9 9 9 9 9 9
12 12 12 12 12 12 12 11 12 12 12 12 12 12 12 12 12 12 12 11 11 11 11 10 10 10 10 10 10 10 10 10 10 9 9 9 9 9 9 9 9 9 9
11 11 11 11 11 11 11 11 11 11 11 11 11 11 11 11 12 11 11 11 11 10 10 10 10 10 10 10 10 10 9 9 9 9 9 9 9 8 8 8 8 8 8
11 11 11 11 11 11 11 11 11 10 11 11 11 11 11 11 11 11 11 10 10 10 10 10 10 10 10 10 10 10 9 9 9 9 8 8 8 8 8 8 8 8 8
11 11 10 10 10 10 10 10 10 10 10 10 10 10 10 10 10 10 10 10 9 9 9 9 9 9 9 9 9 9 9 9 8 8 8 8 8 7 7 7 7 7 7
10 10 10 10 10 10 10 10 10 10 10 10 10 10 10 10 9 9 9 9 9 9 9 9 9 9 9 9 9 9 9 8 8 8 8 7 7 7 7 7 7 6 6
9 9 9 9 9 9 9 9 9 9 9 9 9 9 9 9 9 9 9 9 9 9 9 9 9 9 9 9 9 9 8 8 8 8 7 7 7 7 6 6 6 6 5
9 9 9 9 9 9 9 9 9 9 9 9 9 9 9 9 9 9 9 9 9 9 9 9 9 9 9 9 8 8 8 8 8 8 7 7 7 7 6 6 6 5 5
8 8 8 9 9 9 8 8 8 9 9 9 9 9 9 9 9 9 9 9 9 9 9 8 8 8 8 8 8 8 8 7 7 7 7 7 6 6 6 6 5 5 5
8 8 8 8 8 8 8 8 8 8 8 8 8 8 8 8 8 8 8 8 8 8 8 8 8 8 8 8 8 8 8 7 7 7 7 6 6 6 6 5 5 4 4
8 7 8 8 8 8 8 8 8 8 8 8 8 8 8 8 8 8 8 8 8 8 8 8 8 8 8 7 7 7 7 7 7 6 6 6 6 5 5 5 5 4 4
Wind_Speed
5 5 5 4 4 4 4 4 3 3 3 3 3 3 3 3 2 2 2 2 3 2 2 3 3 3 3 3 3 3 4 4 4 3 2 2 3 4 3 5 6 6 8
5 5 4 4 4 4 4 4 4 4 3 3 3 3 3 3 3 3 3 2 3 3 3 3 3 3 3 3 3 3 3 4 4 3 2 1 2 2 3 4 4 5 5
4 5 4 5 5 5 5 4 4 4 4 4 3 3 3 3 2 2 3 3 3 3 3 3 3 3 4 3 3 4 3 3 3 3 2 1 1 1 2 2 3 3 4
4 4 4 4 4 5 5 4 4 4 4 4 3 3 3 3 3 3 2 3 3 3 3 3 3 3 3 4 3 4 3 3 3 3 3 2 2 2 2 2 2 3 3
3 4 4 4 4 4 4 4 4 4 4 4 4 3 3 3 3 3 3 3 2 2 2 2 2 2 4 4 4 3 3 3 3 3 3 2 2 2 2 2 2 2 2
3 3 3 4 3 4 5 5 4 5 5 4 5 4 3 2 0 2 4 3 2 2 2 2 2 1 1 1 2 4 4 3 2 2 2 3 2 2 1 2 2 3 2
4 3 3 4 3 4 4 5 5 5 5 5 5 5 4 3 2 3 4 4 3 2 2 2 2 1 2 2 2 3 1 1 3 3 2 1 1 1 2 2 2 2 1
3 4 3 4 4 4 5 5 5 5 5 5 5 5 5 3 4 4 5 5 3 2 2 3 2 2 2 3 2 1 1 1 1 1 1 2 1 0 1 1 2 2 1
3 4 4 4 4 5 5 6 6 5 5 6 5 6 6 5 6 6 6 4 4 3 2 1 2 2 2 3 3 2 1 1 3 4 5 5 7 6 2 1 2 3 2
4 4 4 4 5 6 6 6 6 6 6 6 6 6 6 6 6 7 8 5 4 3 2 2 1 2 2 2 3 2 2 1 1 3 3 3 2 3 3 0 1 2 2
4 4 4 4 5 6 5 5 6 6 6 6 6 6 6 6 7 8 7 5 5 4 3 2 1 2 0 1 3 2 1 1 2 2 1 1 1 2 2 2 1 0 1
4 4 5 5 5 5 5 5 5 6 6 7 6 6 6 6 6 7 8 7 5 5 4 3 2 4 2 1 1 1 0 2 2 2 2 1 1 1 2 2 3 3 3
5 5 5 5 5 5 5 5 5 5 6 6 6 6 5 5 5 7 8 7 6 5 3 2 2 3 4 3 2 2 3 3 3 2 2 1 1 1 2 2 3 3 4
6 6 5 6 5 5 4 5 5 5 5 6 6 6 5 5 5 6 6 7 8 7 5 5 6 4 3 2 4 4 3 2 2 3 2 2 2 2 2 2 2 2 2
7 6 6 5 6 5 5 5 6 6 6 6 6 6 6 7 5 3 5 6 6 6 6 5 5 5 4 4 3 3 3 3 3 3 3 3 2 2 2 1 1 2 2
7 6 5 5 5 5 5 5 4 6 6 7 8 8 6 4 4 5 6 6 5 6 6 6 6 6 6 5 5 5 4 4 4 4 3 3 3 3 2 2 2 2 2
7 7 6 6 5 6 6 6 5 4 5 8 9 9 8 6 7 7 7 7 8 9 8 7 7 7 7 6 6 5 5 5 4 4 4 4 3 3 3 3 2 2 2
8 7 7 6 6 6 6 6 6 6 5 5 6 8 9 9 9 9 8 8 7 9 8 8 8 7 7 7 6 6 6 5 5 5 4 4 4 4 3 3 3 2 2
8 7 6 7 7 7 7 6 6 7 7 6 5 5 7 7 8 9 10 8 9 9 9 9 8 8 7 7 7 7 7 6 6 6 5 5 4 4 4 3 3 3 3
8 8 8 7 7 7 7 7 7 7 7 7 7 6 5 5 6 7 9 9 9 9 9 9 8 8 8 7 7 7 7 7 7 6 6 5 5 4 4 4 3 3 3
8 7 8 8 8 8 7 8 8 8 7 7 7 6 7 8 8 9 9 9 9 9 8 8 8 8 8 7 7 8 9 7 7 6 6 5 5 4 4 4 4 3 3
8 8 8 8 8 8 8 8 8 8 9 8 6 6 9 9 8 8 9 9 9 8 8 8 8 8 8 8 9 9 9 8 8 8 7 6 6 5 5 5 4 4 3
9 9 9 9 9 8 9 9 9 9 9 8 7 7 8 9 9 9 9 8 8 8 7 7 7 7 8 9 9 9 9 9 8 8 8 7 7 6 6 5 6 5 4
9 10 10 9 9 9 9 10 9 9 9 9 8 8 8 9 9 9 9 8 8 8 8 8 8 10 11 9 9 9 9 8 9 9 10 8 7 7 6 6 6 6 5
10 10 10 10 9 9 10 10 10 10 9 9 9 9 9 9 9 9 8 8 9 8 9 8 8 9 12 13 11 10 10 11 10 8 9 8 8 7 7 7 6 6 5
11 11 11 10 10 10 10 10 10 10 10 9 9 9 9 9 9 9 9 8 8 8 8 8 9 11 12 12 13 13 14 14 13 11 9 8 8 8 8 7 7 6 6
Wind_Direction
213 212 215 222 227 233 236 249 260 265 265 275 286 296 306 312 313 305 306 304 297 300 280 280 286 291 278 273 269 266 258 251 252 252 232 216 200 200 182 202 197 192 190
214 215 218 227 226 233 240 246 248 251 252 260 270 280 292 298 303 306 302 300 298 303 301 295 295 288 277 276 274 269 259 251 247 241 236 231 217 191 186 193 196 195 191
210 217 220 225 231 237 245 248 244 244 245 245 254 267 277 282 285 288 290 284 288 298 305 306 304 296 283 275 271 270 265 254 241 231 227 222 231 188 175 181 183 182 186
210 219 227 232 235 242 246 248 247 242 241 244 248 256 268 276 279 279 283 286 289 298 300 303 307 303 297 293 277 271 260 248 239 225 220 207 205 205 193 184 174 176 187
211 222 234 241 238 243 245 245 245 241 240 242 249 255 259 266 280 284 271 275 290 302 304 300 312 335 346 325 314 302 282 254 237 222 216 216 211 201 201 199 189 179 177
223 229 238 249 243 242 243 244 242 235 237 239 243 250 250 251 304 298 283 268 271 279 286 286 281 265 280 252 333 343 337 304 281 239 226 228 223 204 197 202 193 200 195
236 232 234 241 240 242 239 236 234 235 235 239 241 243 241 223 174 216 257 262 257 263 274 276 284 292 281 271 197 201 213 343 317 296 266 264 232 209 198 203 204 212 200
251 249 245 247 245 244 241 240 239 241 237 234 239 240 238 221 183 207 238 237 240 245 257 274 276 289 313 292 264 198 65 33 342 299 312 324 335 201 209 223 189 175 187
261 264 257 248 245 243 240 241 245 243 239 235 232 233 234 218 186 205 236 225 226 231 241 277 290 285 3 303 254 216 184 128 96 77 53 56 54 44 19 193 190 193 201
270 269 264 253 245 244 245 245 245 242 241 241 235 233 232 231 186 198 232 223 226 226 220 213 58 329 3 314 245 228 220 209 180 150 132 118 99 76 44 321 254 221 201
281 273 266 256 249 249 249 243 238 239 241 241 236 234 232 231 198 194 219 226 226 228 223 218 190 134 181 307 275 258 250 241 205 169 144 108 92 89 81 66 46 321 205
285 274 266 260 256 249 243 242 238 235 235 235 233 232 230 222 215 197 199 222 253 226 227 223 174 136 150 181 210 115 145 221 203 184 172 153 128 109 100 97 90 81 70
281 273 268 264 257 252 244 239 237 234 236 234 232 232 229 221 201 188 195 201 222 225 217 125 133 158 181 173 163 189 209 212 199 190 181 174 158 130 124 121 118 110 96
283 276 269 263 260 254 249 244 242 239 238 235 233 233 231 223 217 205 200 196 194 204 206 172 167 176 194 198 182 189 203 206 201 193 190 173 150 140 137 144 152 156 139
285 279 273 267 263 257 250 250 248 249 248 241 238 236 231 229 219 206 219 214 210 203 196 202 205 201 199 197 195 187 188 191 191 196 187 179 170 162 152 152 166 178 183
288 282 275 269 263 258 256 260 265 259 248 244 250 248 241 236 196 202 215 216 203 189 203 212 212 209 207 203 198 193 190 191 192 190 187 188 185 175 167 163 171 180 185
285 281 274 268 263 258 255 255 263 273 246 235 234 234 233 215 206 207 204 196 195 195 213 218 216 213 208 205 203 201 195 192 192 192 191 190 188 180 177 175 177 184 187
285 279 273 267 262 260 257 255 253 255 258 254 236 221 215 209 209 207 194 187 203 206 218 218 217 215 211 207 203 203 198 193 193 193 193 191 190 186 181 183 184 189 191
284 279 275 272 265 261 259 256 255 255 253 248 241 224 208 207 209 207 196 213 217 216 215 216 216 214 211 207 203 199 196 195 194 194 193 191 192 190 187 185 179 171 201
280 273 273 272 264 259 257 256 257 255 251 244 236 227 210 215 221 213 215 223 225 222 219 216 213 211 207 205 201 198 196 195 194 196 193 192 192 192 189 188 185 184 193
283 277 264 267 262 259 258 256 257 256 251 246 241 224 207 222 226 222 220 224 225 223 219 216 210 205 203 200 199 200 198 195 192 193 190 189 188 187 186 185 186 188 185
281 279 273 268 264 259 259 259 257 257 252 248 246 229 207 225 229 227 226 225 224 222 218 215 211 205 201 199 199 198 198 196 192 190 189 188 188 188 187 186 187 185 184
278 277 274 270 266 261 258 259 256 256 253 246 242 234 225 229 230 230 228 226 221 218 214 212 212 206 201 200 198 198 199 196 193 190 188 188 188 186 186 187 187 188 187
276 275 274 271 267 264 260 259 257 255 255 248 242 237 233 233 230 229 227 223 218 214 209 209 211 207 200 196 194 194 196 191 188 191 190 187 186 186 185 185 189 191 190
273 273 272 269 266 263 260 259 257 255 254 251 244 240 238 235 232 227 224 220 216 212 207 206 207 205 200 195 193 189 174 171 180 183 183 184 182 182 184 184 186 188 192
271 271 270 269 267 264 261 258 255 254 252 251 248 242 239 236 232 227 221 216 212 208 204 204 205 202 198 195 190 178 168 170 173 177 182 181 181 183 183 186 185 190 192
Height
1514 1514 1514 1515 1515 1515 1515 1514 1514 1513 1512 1511 1510 1509 1508 1507 1506 1504 1504 1502 1502 1501 1500 1500 1499 1498 1498 1497 1497 1496 1497 1497 1497 1497 1497 1498 1499 1500 1501 1503 1505 1506 1508
1511 1512 1513 1513 1513 1513 1513 1513 1512 1511 1511 1510 1509 1508 1507 1506 1505 1504 1503 1502 1501 1500 1499 1499 1498 1497 1496 1496 1495 1495 1495 1495 1495 1495 1496 1496 1497 1498 1499 1501 1502 1504 1506
1510 1510 1511 1511 1511 1511 1511 1510 1510 1510 1509 1508 1508 1507 1506 1505 1504 1503 1502 1501 1500 1500 1498 1497 1497 1496 1495 1495 1494 1494 1493 1493 1493 1494 1494 1495 1495 1497 1498 1499 1500 1502 1504
1508 1508 1509 1509 1509 1509 1509 1508 1508 1508 1508 1507 1506 1506 1505 1504 1503 1502 1501 1501 1500 1499 1498 1496 1496 1495 1494 1493 1493 1493 1492 1492 1492 1492 1493 1493 1494 1495 1496 1497 1499 1500 1501
1506 1506 1507 1507 1507 1506 1506 1506 1506 1506 1506 1505 1505 1504 1503 1502 1502 1501 1500 1500 1499 1498 1497 1496 1495 1493 1493 1492 1492 1491 1491 1491 1491 1491 1492 1492 1493 1494 1495 1496 1497 1498 1499
1505 1505 1504 1504 1504 1504 1504 1504 1504 1503 1503 1503 1503 1502 1501 1500 1500 1499 1499 1498 1498 1497 1496 1495 1494 1493 1492 1491 1491 1490 1490 1490 1490 1490 1490 1491 1492 1493 1493 1494 1495 1496 1498
1503 1502 1502 1502 1502 1502 1501 1501 1501 1501 1501 1500 1500 1500 1499 1499 1498 1497 1497 1497 1497 1496 1495 1495 1494 1492 1491 1491 1490 1489 1489 1489 1489 1489 1490 1490 1491 1491 1491 1492 1493 1494 1495
1500 1500 1499 1499 1499 1499 1499 1498 1498 1498 1498 1497 1497 1497 1496 1496 1496 1495 1495 1495 1495 1494 1494 1493 1493 1492 1491 1490 1490 1489 1489 1488 1488 1488 1488 1489 1489 1490 1490 1491 1491 1492 1493
1497 1497 1496 1495 1495 1495 1495 1495 1495 1495 1494 1494 1494 1493 1493 1493 1493 1493 1493 1493 1493 1493 1492 1491 1491 1490 1489 1489 1489 1489 1488 1488 1488 1487 1487 1487 1488 1488 1488 1489 1490 1491 1492
1494 1493 1493 1492 1492 1491 1491 1491 1491 1491 1491 1491 1490 1490 1490 1490 1490 1490 1490 1491 1491 1491 1490 1489 1488 1488 1488 1487 1488 1488 1488 1488 1488 1487 1487 1487 1487 1487 1487 1488 1489 1490 1491
1491 1490 1489 1489 1488 1488 1488 1487 1487 1487 1487 1487 1487 1486 1486 1487 1487 1487 1487 1488 1488 1488 1488 1488 1487 1486 1486 1486 1486 1486 1486 1487 1487 1487 1487 1486 1486 1486 1486 1486 1487 1488 1489
1487 1486 1486 1485 1485 1484 1484 1483 1483 1483 1483 1483 1483 1483 1483 1483 1483 1483 1484 1484 1485 1485 1485 1485 1485 1484 1484 1484 1484 1484 1484 1485 1485 1486 1486 1485 1485 1485 1485 1485 1486 1487 1488
1483 1482 1482 1481 1481 1480 1480 1479 1479 1479 1479 1479 1479 1479 1479 1479 1479 1479 1480 1480 1481 1481 1482 1482 1482 1482 1482 1482 1482 1482 1483 1483 1484 1484 1484 1484 1484 1484 1484 1484 1485 1486 1486
1480 1479 1478 1477 1476 1476 1475 1475 1475 1474 1474 1475 1475 1475 1475 1475 1475 1475 1476 1476 1477 1478 1478 1479 1479 1480 1480 1480 1480 1480 1480 1481 1481 1482 1482 1482 1482 1482 1483 1483 1484 1485 1485
1476 1475 1474 1472 1471 1471 1470 1470 1470 1470 1470 1470 1470 1470 1470 1470 1471 1471 1472 1473 1473 1474 1475 1475 1476 1477 1477 1477 1478 1478 1478 1478 1479 1479 1480 1480 1480 1481 1481 1482 1482 1483 1484
1472 1470 1469 1468 1467 1466 1465 1465 1464 1465 1464 1464 1465 1465 1465 1465 1466 1466 1467 1468 1469 1470 1471 1472 1472 1473 1473 1474 1475 1475 1475 1475 1476 1477 1478 1478 1479 1479 1479 1480 1481 1481 1482
1468 1466 1465 1463 1463 1461 1461 1460 1459 1458 1458 1458 1459 1459 1460 1460 1461 1461 1462 1463 1464 1465 1466 1467 1468 1469 1469 1470 1471 1471 1472 1472 1473 1474 1475 1475 1476 1476 1477 1478 1478 1479 1480
1463 1461 1460 1459 1458 1457 1456 1455 1454 1453 1453 1452 1453 1453 1454 1455 1455 1456 1457 1458 1459 1460 1461 1462 1463 1464 1465 1465 1466 1467 1468 1469 1469 1470 1471 1472 1473 1474 1474 1475 1476 1476 1477
1458 1457 1455 1454 1453 1452 1451 1450 1449 1448 1448 1447 1447 1448 1448 1449 1450 1451 1451 1452 1453 1454 1455 1456 1457 1458 1460 1461 1461 1463 1464 1465 1465 1466 1467 1468 1469 1470 1471 1472 1473 1473 1474
1453 1451 1449 1448 1447 1446 1445 1444 1444 1443 1443 1442 1442 1442 1442 1443 1444 1444 1445 1447 1448 1449 1450 1451 1451 1453 1454 1455 1456 1458 1459 1460 1461 1462 1464 1464 1465 1467 1468 1469 1470 1470 1471
1448 1446 1444 1442 1442 1441 1440 1439 1438 1437 1437 1436 1436 1436 1436 1437 1438 1439 1439 1440 1442 1443 1444 1445 1446 1447 1448 1449 1451 1452 1454 1455 1456 1458 1459 1460 1462 1463 1464 1465 1466 1467 1468
1442 1440 1438 1437 1436 1435 1433 1432 1432 1431 1430 1430 1430 1430 1431 1432 1432 1433 1433 1434 1435 1436 1438 1439 1439 1441 1442 1443 1445 1447 1448 1450 1451 1453 1454 1456 1457 1459 1460 1461 1463 1464 1465
1437 1435 1433 1431 1430 1428 1427 1427 1426 1425 1424 1424 1424 1424 1424 1425 1426 1426 1427 1428 1429 1430 1431 1432 1433 1435 1436 1437 1439 1441 1443 1444 1446 1448 1449 1451 1453 1454 1456 1457 1459 1460 1461
1430 1428 1427 1425 1424 1422 1421 1420 1419 1418 1418 1417 1417 1417 1417 1418 1419 1419 1420 1421 1422 1423 1424 1425 1427 1428 1430 1432 1433 1435 1437 1439 1441 1443 1445 1446 1448 1450 1452 1453 1455 1456 1457
1423 1422 1420 1418 1417 1415 1414 1413 1412 1412 1411 1411 1410 1410 1410 1411 1411 1412 1413 1414 1415 1416 1417 1419 1421 1422 1424 1426 1428 1429 1431 1434 1436 1438 1440 1442 1444 1445 1447 1449 1451 1452 1453
1416 1414 1413 1411 1410 1408 1407 1406 1405 1404 1404 1403 1403 1403 1403 1403 1404 1405 1405 1407 1408 1409 1411 1413 1414 1416 1418 1420 1422 1424 1426 1428 1431 1433 1435 1437 1439 1441 1443 1445 1446 1448 1449